Location: Radomski Observatory
(40.2854°N, 79.5145°W)
Time: 09:56:36
(UTC-04:00)

Amateur Radio Satellites - All Passes

Search period start: 30 August 2015 09:26
Search period end: 31 August 2015 09:26
Location: Radomski Observatory, 40.2854°N, 79.5145°W

Satellite Date Start Highest point End Downlink Frequencies (MHz)
Time Altitude Azimuth
CANX-2 30 Aug 09:26:38 09:30:39 41° 98° (E) 09:34:39 2200.000
Cosmos 2504 30 Aug 09:36:15 09:40:51 16° 58° (ENE) 09:45:50 435.465 / 435.565
TIGRISAT 30 Aug 09:37:09 09:38:21 11° 62° (ENE) 09:39:49 435.000
Oscar 11 30 Aug 09:48:12 09:50:31 15° 90° (E) 09:53:00 145.826/435.025
SEEDS 30 Aug 09:51:26 09:55:34 56° 100° (E) 09:59:39 437.485
ANTELSAT 30 Aug 09:51:38 09:54:28 17° 65° (ENE) 09:57:31 437.575/2403.000
BRITE-PL 30 Aug 09:51:48 09:56:42 34° 290° (WNW) 10:01:42 437.365/2234.400
Cosmos 2491 30 Aug 09:56:10 10:04:52 79° 95° (E) 10:13:35 435.465 / 435.565
SO-50 30 Aug 09:56:27 10:00:21 23° 43° (NE) 10:04:17 436.795
CINEMA 3 30 Aug 10:14:27 10:19:30 78° 102° (ESE) 10:24:25 145.822/145.860
VERMONT LUNAR 30 Aug 10:16:01 10:18:11 18° 208° (SSW) 10:20:19 437.305
COMPASS 1 30 Aug 10:16:27 10:20:38 87° 102° (ESE) 10:24:46 437.405
CUBEBUG 2 30 Aug 10:17:38 10:22:00 37° 96° (E) 10:26:15 437.445
CUSAT 1 30 Aug 10:21:38 10:27:01 21° 64° (ENE) 10:33:04 437.405
PHONESAT 2.4 30 Aug 10:22:44 10:26:08 86° 194° (SSW) 10:29:33 2401.200-2431.200
HO-68 30 Aug 10:25:39 10:32:50 73° 289° (WNW) 10:39:59 435.675
ZACube-1 30 Aug 10:26:10 10:29:55 26° 93° (E) 10:33:39 437.345
AAUSAT CUBESAT 2 30 Aug 10:28:20 10:32:29 82° 283° (WNW) 10:36:36 437.432
UWE-3 30 Aug 10:28:33 10:32:49 37° 96° (E) 10:36:59 435.000/436.395/437.385
GOMX 1 30 Aug 10:30:45 10:35:08 25° 293° (WNW) 10:39:26 467.674
FUNcube-1 30 Aug 10:32:19 10:36:13 29° 94° (E) 10:40:05 145.935
DANDE 30 Aug 10:36:08 10:40:57 19° 64° (ENE) 10:46:36 436.750
POLYITAN 1 30 Aug 10:36:58 10:39:34 16° 66° (ENE) 10:42:20 437.675
POPSAT HIP 1 30 Aug 10:40:11 10:42:54 17° 67° (ENE) 10:45:46 437.405
UNISAT 6 30 Aug 10:40:39 10:45:10 51° 73° (ENE) 10:49:45 437.425
DUCHIFAT 1 30 Aug 10:42:18 10:45:01 17° 67° (ENE) 10:47:53 145.980
CUTE 1.7 + AOD 2 30 Aug 10:49:09 10:52:40 25° 290° (WNW) 10:56:05 437.475
ISS 30 Aug 10:51:49 10:54:56 43° 329° (NNW) 10:58:03 145.825
AUBIESAT-1 30 Aug 10:53:25 10:58:10 85° 72° (ENE) 11:02:54 437.475
DOVE 4 30 Aug 10:53:29 10:57:40 23° 293° (WNW) 11:01:43 437.250
QB50P2 30 Aug 10:55:47 10:59:17 26° 69° (ENE) 11:02:53 145.880/145.840
M-CUBED/EXP-1 PRIME 30 Aug 10:56:54 11:01:42 77° 254° (WSW) 11:06:29 437.505
NANOSAT C BR1 30 Aug 10:58:15 11:01:45 26° 69° (ENE) 11:05:20 145.865
BUGSAT 1 30 Aug 10:58:19 11:00:41 16° 66° (ENE) 11:03:12 437.445
CANX-2 30 Aug 11:03:30 11:06:16 17° 293° (WNW) 11:08:54 2200.000
DELFI C3 30 Aug 11:05:25 11:09:25 73° 100° (E) 11:13:23 145.870
YUBILEINY 30 Aug 11:09:10 11:15:25 21° 279° (W) 11:21:13 435.215
TIGRISAT 30 Aug 11:09:48 11:14:27 83° 256° (WSW) 11:19:12 435.000
QB50P1 30 Aug 11:10:43 11:14:35 36° 72° (ENE) 11:18:32 145.935-145.965
DX 1 30 Aug 11:12:48 11:15:41 18° 92° (E) 11:18:42 434.975-435.025
Oscar 11 30 Aug 11:22:51 11:27:01 46° 287° (WNW) 11:31:07 145.826/435.025
HUMSAT D 30 Aug 11:25:54 11:29:58 44° 98° (E) 11:33:59 437.325/437.525
PCSat 30 Aug 11:26:08 11:31:10 37° 53° (NE) 11:36:11 145.827
Cosmos 2504 30 Aug 11:26:13 11:34:48 80° 82° (E) 11:42:52 435.465 / 435.565
ANTELSAT 30 Aug 11:26:16 11:30:50 53° 260° (W) 11:35:28 437.575/2403.000
AISAT 30 Aug 11:27:36 11:30:28 17° 91° (E) 11:33:29 437.250
UKube-1 30 Aug 11:27:52 11:31:16 23° 94° (E) 11:34:46 .
SEEDS 30 Aug 11:29:01 11:30:55 13° 295° (WNW) 11:32:36 437.485
CUBEBUG 1 30 Aug 11:34:58 11:36:21 12° 88° (E) 11:38:00 437.445
SO-50 30 Aug 11:36:26 11:41:14 52° 243° (WSW) 11:45:53 436.795
CINEMA 3 30 Aug 11:53:41 11:56:03 13° 297° (WNW) 11:58:10 145.822/145.860
CUBEBUG 2 30 Aug 11:54:46 11:58:27 22° 293° (WNW) 12:01:57 437.445
VELOX 1 30 Aug 11:55:29 11:59:30 32° 96° (E) 12:03:32 145.980
Cosmos 2491 30 Aug 11:56:18 12:02:53 22° 297° (WNW) 12:09:05 435.465 / 435.565
50 SAT 30 Aug 11:56:59 12:00:39 40° 98° (E) 12:04:17 437.505
PHONESAT 2.4 30 Aug 12:00:46 12:03:51 32° 204° (SSW) 12:06:56 2401.200-2431.200
ZACube-1 30 Aug 12:02:20 12:06:15 29° 291° (WNW) 12:10:01 437.345
CUSAT 1 30 Aug 12:02:41 12:10:24 87° 263° (W) 12:18:42 437.405
UWE-3 30 Aug 12:05:33 12:09:06 22° 293° (WNW) 12:12:29 435.000/436.395/437.385
FUNcube-1 30 Aug 12:08:41 12:12:27 25° 291° (WNW) 12:16:02 145.935
POLYITAN 1 30 Aug 12:11:03 12:15:08 44° 262° (W) 12:19:16 437.675
POPSAT HIP 1 30 Aug 12:14:26 12:18:28 41° 262° (W) 12:22:31 437.405
HO-68 30 Aug 12:15:46 12:19:30 14° 306° (NW) 12:22:51 435.675
DUCHIFAT 1 30 Aug 12:16:32 12:20:32 40° 262° (W) 12:24:33 145.980
DANDE 30 Aug 12:17:27 12:24:55 87° 82° (E) 12:33:28 436.750
UNISAT 6 30 Aug 12:19:19 12:22:16 16° 270° (W) 12:25:04 437.425
ISS 30 Aug 12:30:12 12:31:58 14° 348° (NNW) 12:33:44 145.825
QB50P2 30 Aug 12:31:31 12:35:08 26° 265° (W) 12:38:42 145.880/145.840
BUGSAT 1 30 Aug 12:31:58 12:35:49 42° 262° (W) 12:39:44 437.445
AUBIESAT-1 30 Aug 12:32:56 12:33:28 10° 268° (W) 12:33:40 437.475
NANOSAT C BR1 30 Aug 12:33:58 12:37:32 25° 265° (W) 12:41:03 145.865
ESTCUBE 1 30 Aug 12:43:07 12:47:38 83° 103° (ESE) 12:52:08 437.505/2401.250
QB50P1 30 Aug 12:47:35 12:50:36 18° 268° (W) 12:53:31 145.935-145.965
DX 1 30 Aug 12:48:01 12:52:08 40° 288° (WNW) 12:56:14 434.975-435.025
TISAT 1 30 Aug 12:48:04 12:49:46 12° 89° (E) 12:51:41 437.305
HUMSAT D 30 Aug 13:02:42 13:05:21 16° 294° (WNW) 13:07:50 437.325/437.525
AISAT 30 Aug 13:03:01 13:07:17 43° 288° (WNW) 13:11:31 437.250
UKube-1 30 Aug 13:03:36 13:07:26 31° 290° (WNW) 13:11:13 .
CUBEBUG 1 30 Aug 13:08:48 13:13:11 62° 286° (WNW) 13:17:33 437.445
PCSat 30 Aug 13:09:45 13:14:30 31° 250° (WSW) 13:19:09 145.827
SPROUT 30 Aug 13:11:06 13:15:13 41° 98° (E) 13:19:20 437.525
Cosmos 2504 30 Aug 13:20:10 13:26:04 20° 280° (W) 13:31:22 435.465 / 435.565
Oscar 19 30 Aug 13:21:45 13:26:32 41° 70° (ENE) 13:31:25 437.125/150
VELOX 1 30 Aug 13:32:20 13:35:53 23° 292° (WNW) 13:39:22 145.980
50 SAT 30 Aug 13:32:38 13:34:52 14° 293° (WNW) 13:36:55 437.505
CUSAT 1 30 Aug 13:47:14 13:52:17 18° 275° (W) 13:57:05 437.405
Gurwin Techsat 1B 30 Aug 13:50:05 13:54:15 25° 66° (ENE) 13:58:33 435.225
ITUPSAT 1 30 Aug 13:53:04 13:53:41 10° 87° (E) 13:54:40 437.325
GONETS M04 30 Aug 13:57:39 14:05:39 39° 71° (ENE) 14:13:48
DANDE 30 Aug 14:02:16 14:07:35 20° 273° (W) 14:12:53 436.750
Cosmos 2499 30 Aug 14:07:12 14:07:31 10° 51° (NE) 14:08:35 435.465 / 435.565
ISS 30 Aug 14:08:01 14:09:26 12° 8° (N) 14:10:53 145.825
JAS-2 30 Aug 14:08:27 14:14:28 27° 62° (ENE) 14:20:48 435.910
ITAMSAT 1 30 Aug 14:17:08 14:21:46 35° 69° (ENE) 14:26:28 435.822/435.867
TISAT 1 30 Aug 14:21:44 14:25:55 54° 286° (WNW) 14:30:04 437.305
ESTCUBE 1 30 Aug 14:23:24 14:23:55 10° 297° (WNW) 14:24:10 437.505/2401.250
BEESAT 30 Aug 14:24:42 14:28:31 24° 94° (E) 14:32:26 436.000
AO-7 30 Aug 14:28:31 14:34:02 21° 53° (NE) 14:39:51 29.400- 29.500
RS-15 30 Aug 14:46:26 14:46:53 10° 97° (E) 14:48:35 29.354- 29.394
SPROUT 30 Aug 14:48:02 14:51:00 18° 293° (WNW) 14:53:50 437.525
SWISSCUBE 30 Aug 14:49:51 14:54:27 49° 99° (E) 14:59:04 437.505
Oscar 19 30 Aug 15:01:56 15:06:05 23° 267° (W) 15:10:07 437.125/150
BEESAT 3 30 Aug 15:12:39 15:15:49 23° 113° (ESE) 15:19:04 437.485
BEESAT 2 30 Aug 15:22:23 15:25:29 22° 113° (ESE) 15:28:42 435.950
ITUPSAT 1 30 Aug 15:27:29 15:32:15 77° 284° (WNW) 15:37:00 437.325
Gurwin Techsat 1B 30 Aug 15:28:59 15:34:01 42° 262° (W) 15:39:03 435.225
ISS 30 Aug 15:43:41 15:46:37 30° 27° (NNE) 15:49:33 145.825
STARS 30 Aug 15:47:34 15:50:22 17° 91° (E) 15:53:20 437.465
JAS-2 30 Aug 15:51:17 15:58:51 70° 259° (W) 16:06:45 435.910
GONETS M04 30 Aug 15:54:24 16:02:41 46° 271° (W) 16:10:52
Cosmos 2499 30 Aug 15:54:48 16:03:20 56° 76° (ENE) 16:11:19 435.465 / 435.565
ITAMSAT 1 30 Aug 15:56:55 16:01:20 27° 265° (W) 16:05:41 435.822/435.867
KKS-1 30 Aug 16:01:08 16:05:23 40° 98° (E) 16:09:37 437.445
BEESAT 30 Aug 16:02:08 16:06:26 34° 290° (WNW) 16:10:40 436.000
HORYU 2 30 Aug 16:09:47 16:14:10 55° 73° (ENE) 16:18:36 437.375
AO-7 30 Aug 16:17:28 16:25:50 87° 72° (ENE) 16:34:14 29.400- 29.500
SWISSCUBE 30 Aug 16:28:42 16:31:58 18° 295° (WNW) 16:35:05 437.505
RS-15 30 Aug 16:46:36 16:57:10 62° 114° (ESE) 17:08:14 29.354- 29.394
BEESAT 3 30 Aug 16:49:53 16:53:35 32° 309° (NW) 16:57:17 437.485
BEESAT 2 30 Aug 16:59:35 17:03:21 34° 309° (NW) 17:07:08 435.950
ISS 30 Aug 17:20:04 17:23:00 31° 224° (SW) 17:25:55 145.825
STARS 30 Aug 17:22:50 17:27:04 43° 288° (WNW) 17:31:16 437.465
AIST 2 30 Aug 17:24:50 17:29:04 90° 165° (SSE) 17:33:21 435.215
Cubesat XI-IV 30 Aug 17:25:38 17:28:42 16° 63° (ENE) 17:32:00 437.490
KKS-1 30 Aug 17:38:29 17:41:45 19° 294° (WNW) 17:44:53 437.445
MOZHAYETS 4 30 Aug 17:38:50 17:43:23 67° 100° (E) 17:47:55
JAS-2 30 Aug 17:42:19 17:45:26 12° 279° (W) 17:47:57 435.910
Cosmos 2499 30 Aug 17:48:42 17:56:03 31° 276° (W) 18:02:49 435.465 / 435.565
HORYU 2 30 Aug 17:48:51 17:51:12 14° 270° (W) 17:53:21 437.375
CUTE-I 30 Aug 18:08:59 18:13:50 39° 70° (ENE) 18:18:46 437.470
AO-7 30 Aug 18:14:09 18:19:47 18° 271° (W) 18:24:58 29.400- 29.500
RS-15 30 Aug 18:59:50 19:10:12 43° 319° (NW) 19:20:53 29.354- 29.394
AIST 1 30 Aug 19:02:04 19:04:40 16° 70° (ENE) 19:07:27
Cubesat XI-IV 30 Aug 19:03:00 19:08:18 68° 258° (WSW) 19:13:38 437.490
AIST 2 30 Aug 19:06:23 19:08:18 12° 321° (NW) 19:10:05 435.215
O/OREOS (USA 219) 30 Aug 19:09:09 19:12:47 25° 103° (ESE) 19:16:32 437.305
HO-68 30 Aug 19:09:29 19:13:19 16° 55° (NE) 19:17:30 435.675
MOZHAYETS 4 30 Aug 19:18:02 19:20:07 13° 296° (WNW) 19:21:59
BRITE-PL 30 Aug 19:24:36 19:28:18 29° 69° (ENE) 19:32:19 437.365/2234.400
CUBESAT XI-V 30 Aug 19:28:31 19:33:11 83° 102° (ESE) 19:37:50 437.345
CUTE-I 30 Aug 19:49:37 19:54:04 26° 266° (W) 19:58:24 437.470
GOMX 1 30 Aug 20:00:06 20:04:15 40° 71° (ENE) 20:08:45 467.674
CUTE 1.7 + AOD 2 30 Aug 20:06:10 20:09:07 19° 68° (ENE) 20:12:12 437.475
Cosmos 2491 30 Aug 20:07:26 20:15:22 38° 71° (ENE) 20:23:27 435.465 / 435.565
YUBILEINY 30 Aug 20:18:16 20:23:14 18° 79° (E) 20:28:44 435.215
CANX-2 30 Aug 20:19:09 20:22:49 29° 71° (ENE) 20:26:33 2200.000
DOVE 4 30 Aug 20:20:17 20:24:31 39° 71° (ENE) 20:29:04 437.250
STRAND 1 30 Aug 20:22:10 20:27:17 71° 103° (ESE) 20:32:23 437.568
PRISM 30 Aug 20:30:58 20:35:03 65° 101° (ESE) 20:39:08 437.425
AIST 1 30 Aug 20:38:30 20:42:35 41° 267° (W) 20:46:39
SEEDS 30 Aug 20:42:49 20:46:42 37° 72° (ENE) 20:50:39 437.485
Oscar 11 30 Aug 20:43:45 20:45:14 12° 64° (ENE) 20:46:57 145.826/435.025
O/OREOS (USA 219) 30 Aug 20:48:02 20:52:06 31° 300° (WNW) 20:56:10 437.305
HO-68 30 Aug 20:52:56 21:00:05 81° 73° (ENE) 21:07:19 435.675
BRITE-PL 30 Aug 21:03:18 21:06:54 24° 268° (W) 21:10:36 437.365/2234.400
COMPASS 1 30 Aug 21:06:44 21:10:51 53° 74° (ENE) 21:14:57 437.405
CUBESAT XI-V 30 Aug 21:08:56 21:10:02 11° 297° (WNW) 21:10:51 437.345
CUBEBUG 2 30 Aug 21:15:12 21:19:11 30° 70° (ENE) 21:23:20 437.445
CINEMA 3 30 Aug 21:15:12 21:19:48 65° 75° (ENE) 21:24:38 145.822/145.860
AAUSAT CUBESAT 2 30 Aug 21:18:06 21:22:14 61° 75° (ENE) 21:26:22 437.432
RS-15 30 Aug 21:18:55 21:26:53 21° 352° (N) 21:35:01 29.354- 29.394
ZACube-1 30 Aug 21:21:49 21:25:09 21° 67° (ENE) 21:28:37 437.345
UWE-3 30 Aug 21:25:01 21:28:57 29° 70° (ENE) 21:33:01 435.000/436.395/437.385
FUNcube-1 30 Aug 21:27:37 21:31:07 23° 68° (ENE) 21:34:47 145.935
GOMX 1 30 Aug 21:39:26 21:42:41 19° 270° (W) 21:45:56 467.674
CUTE 1.7 + AOD 2 30 Aug 21:40:47 21:44:48 37° 263° (W) 21:48:47 437.475
DELFI C3 30 Aug 21:51:46 21:55:33 39° 73° (ENE) 21:59:21 145.870
CANX-2 30 Aug 21:55:14 21:58:44 24° 266° (W) 22:02:12 2200.000
DOVE 4 30 Aug 21:59:05 22:02:31 20° 270° (W) 22:05:59 437.250
STRAND 1 30 Aug 22:03:07 22:05:58 15° 298° (WNW) 22:08:34 437.568
Cosmos 2491 30 Aug 22:04:11 22:12:26 47° 271° (W) 22:20:35 435.465 / 435.565
DX 1 30 Aug 22:08:40 22:11:06 15° 65° (ENE) 22:13:42 434.975-435.025
PRISM 30 Aug 22:08:51 22:10:00 11° 296° (WNW) 22:10:57 437.425
YUBILEINY 30 Aug 22:10:11 22:18:59 89° 277° (W) 22:27:53 435.215
Oscar 11 30 Aug 22:16:36 22:20:55 66° 259° (W) 22:25:16 145.826/435.025
HUMSAT D 30 Aug 22:17:00 22:20:45 30° 71° (ENE) 22:24:34 437.325/437.525
SEEDS 30 Aug 22:19:39 22:22:39 18° 268° (W) 22:25:31 437.485
UKube-1 30 Aug 22:22:39 22:25:39 19° 67° (ENE) 22:28:47 .
AISAT 30 Aug 22:25:33 22:28:01 15° 65° (ENE) 22:30:40 437.250
UNISAT 6 30 Aug 22:35:57 22:36:58 11° 87° (E) 22:38:16 437.425
50 SAT 30 Aug 22:40:14 22:43:15 22° 69° (ENE) 22:46:22 437.505
HO-68 30 Aug 22:43:59 22:48:44 18° 271° (W) 22:53:07 435.675
COMPASS 1 30 Aug 22:45:03 22:46:53 12° 271° (W) 22:48:30 437.405
CUBEBUG 2 30 Aug 22:51:53 22:55:50 27° 266° (W) 22:59:50 437.445
VELOX 1 30 Aug 22:52:46 22:56:27 28° 69° (ENE) 23:00:15 145.980
CINEMA 3 30 Aug 22:55:27 22:57:36 13° 273° (W) 22:59:31 145.822/145.860
ZACube-1 30 Aug 22:57:00 23:01:14 38° 263° (W) 23:05:32 437.345
AAUSAT CUBESAT 2 30 Aug 22:57:18 22:58:17 10° 272° (W) 22:59:01 437.432
UWE-3 30 Aug 23:01:31 23:05:26 27° 266° (W) 23:09:23 435.000/436.395/437.385
TIGRISAT 30 Aug 23:03:01 23:06:28 22° 92° (E) 23:09:59 435.000
FUNcube-1 30 Aug 23:03:08 23:07:16 34° 264° (W) 23:11:26 145.935
ANTELSAT 30 Aug 23:19:06 23:23:13 33° 96° (E) 23:27:17 437.575/2403.000
DELFI C3 30 Aug 23:28:19 23:30:49 15° 269° (W) 23:33:09 145.870
BEESAT 3 30 Aug 23:31:37 23:33:54 15° 42° (NE) 23:36:16 437.485
RS-15 30 Aug 23:35:22 23:44:45 28° 26° (NNE) 23:54:42 29.354- 29.394
BEESAT 2 30 Aug 23:41:54 23:44:08 14° 41° (NE) 23:46:28 435.950
ESTCUBE 1 30 Aug 23:42:01 23:46:28 71° 75° (ENE) 23:50:57 437.505/2401.250
DX 1 30 Aug 23:42:47 23:46:58 49° 260° (W) 23:51:12 434.975-435.025
HUMSAT D 30 Aug 23:53:00 23:56:30 23° 267° (W) 23:59:55 437.325/437.525
Cosmos 2504 30 Aug 23:54:35 00:02:27 62° 92° (E) 00:10:51 435.465 / 435.565
POLYITAN 1 30 Aug 23:56:59 00:00:47 30° 96° (E) 00:04:36 437.675
UKube-1 30 Aug 23:57:32 00:01:33 37° 262° (W) 00:05:34 .
AISAT 30 Aug 23:59:55 00:04:12 51° 260° (W) 00:08:32 437.250
POPSAT HIP 1 31 Aug 00:00:01 00:03:52 32° 96° (E) 00:07:44 437.405
DUCHIFAT 1 31 Aug 00:01:35 00:05:25 31° 96° (E) 00:09:15 145.980
CUBEBUG 1 31 Aug 00:04:07 00:08:27 81° 259° (W) 00:12:47 437.445
SPROUT 31 Aug 00:04:50 00:08:34 30° 70° (ENE) 00:12:22 437.525
AUBIESAT-1 31 Aug 00:09:44 00:13:42 70° 106° (ESE) 00:17:19 437.475
UNISAT 6 31 Aug 00:09:46 00:14:21 69° 285° (WNW) 00:18:47 437.425
YUBILEINY 31 Aug 00:11:19 00:17:20 19° 300° (WNW) 00:22:54 435.215
M-CUBED/EXP-1 PRIME 31 Aug 00:13:51 00:17:55 85° 290° (WNW) 00:21:36 437.505
50 SAT 31 Aug 00:14:15 00:17:39 27° 265° (W) 00:21:02 437.505
BUGSAT 1 31 Aug 00:14:34 00:18:12 27° 95° (E) 00:21:54 437.445
QB50P2 31 Aug 00:16:26 00:20:38 51° 99° (E) 00:24:50 145.880/145.840
NANOSAT C BR1 31 Aug 00:18:24 00:22:36 51° 99° (E) 00:26:46 145.865
VELOX 1 31 Aug 00:29:15 00:32:58 26° 265° (W) 00:36:38 145.980
QB50P1 31 Aug 00:31:29 00:35:48 75° 102° (ESE) 00:40:05 145.935-145.965
TIGRISAT 31 Aug 00:39:09 00:43:20 35° 290° (WNW) 00:47:23 435.000
ANTELSAT 31 Aug 00:56:10 00:59:50 23° 292° (WNW) 01:03:20 437.575/2403.000
ITUPSAT 1 31 Aug 00:58:55 01:01:01 13° 63° (ENE) 01:03:20 437.325
BEESAT 3 31 Aug 01:08:16 01:12:15 62° 241° (WSW) 01:16:09 437.485
CUSAT 1 31 Aug 01:09:59 01:13:41 71° 282° (WNW) 01:18:40 437.405
TISAT 1 31 Aug 01:12:51 01:17:03 80° 258° (WSW) 01:21:18 437.305
BEESAT 2 31 Aug 01:18:36 01:22:38 65° 241° (WSW) 01:26:35 435.950
ESTCUBE 1 31 Aug 01:23:15 01:23:56 10° 273° (W) 01:24:17 437.505/2401.250
DANDE 31 Aug 01:30:14 01:33:31 69° 282° (WNW) 01:37:54 436.750
BEESAT 31 Aug 01:30:44 01:34:43 27° 68° (ENE) 01:38:46 436.000
POLYITAN 1 31 Aug 01:33:05 01:36:33 23° 291° (WNW) 01:39:53 437.675
Oscar 19 31 Aug 01:35:09 01:37:55 15° 89° (E) 01:40:57 437.125/150
POPSAT HIP 1 31 Aug 01:36:12 01:39:35 22° 292° (WNW) 01:42:50 437.405
DUCHIFAT 1 31 Aug 01:37:42 01:41:03 22° 292° (WNW) 01:44:17 145.980
SPROUT 31 Aug 01:41:14 01:44:40 22° 266° (W) 01:48:02 437.525
AIST 2 31 Aug 01:47:05 01:51:09 48° 54° (NE) 01:55:09 435.215
RS-15 31 Aug 01:47:59 01:59:50 73° 54° (NE) 02:12:06 29.354- 29.394
Cosmos 2504 31 Aug 01:48:25 01:55:21 28° 293° (WNW) 02:02:22 435.465 / 435.565
SO-50 31 Aug 01:49:42 01:54:22 59° 119° (ESE) 01:59:14 436.795
BUGSAT 1 31 Aug 01:50:04 01:53:35 25° 291° (WNW) 01:57:01 437.445
QB50P2 31 Aug 01:53:42 01:56:08 15° 295° (WNW) 01:58:24 145.880/145.840
NANOSAT C BR1 31 Aug 01:55:36 01:58:02 14° 295° (WNW) 02:00:17 145.865
SWISSCUBE 31 Aug 01:55:47 02:00:24 53° 73° (ENE) 02:05:03 437.505
PCSat 31 Aug 02:07:25 02:12:17 36° 111° (ESE) 02:17:15 145.827
QB50P1 31 Aug 02:10:16 02:11:06 10° 297° (WNW) 02:11:42 145.935-145.965
ITAMSAT 1 31 Aug 02:32:16 02:34:12 12° 88° (E) 02:36:27 435.822/435.867
ITUPSAT 1 31 Aug 02:33:37 02:38:23 71° 258° (WSW) 02:43:10 437.325
STARS 31 Aug 02:44:38 02:47:03 15° 65° (ENE) 02:49:40 437.465
GONETS M04 31 Aug 02:58:05 03:06:03 44° 89° (E) 03:14:12
KKS-1 31 Aug 02:58:49 03:02:49 35° 71° (ENE) 03:06:55 437.445
JAS-2 31 Aug 03:04:20 03:08:53 19° 85° (E) 03:13:24 435.910
BEESAT 31 Aug 03:08:15 03:12:29 31° 264° (W) 03:16:41 436.000
Oscar 19 31 Aug 03:12:39 03:17:50 64° 286° (WNW) 03:22:56 437.125/150
AIST 2 31 Aug 03:26:52 03:29:21 15° 249° (WSW) 03:31:39 435.215
SO-50 31 Aug 03:31:38 03:35:21 21° 318° (NW) 03:39:02 436.795
SWISSCUBE 31 Aug 03:35:42 03:38:38 16° 270° (W) 03:41:22 437.505
Gurwin Techsat 1B 31 Aug 03:45:16 03:50:37 81° 103° (ESE) 03:55:56 435.225
PCSat 31 Aug 03:50:52 03:55:45 32° 309° (NW) 04:00:36 145.827
RS-15 31 Aug 04:01:22 04:11:37 33° 254° (WSW) 04:21:43 29.354- 29.394
HORYU 2 31 Aug 04:04:14 04:05:07 11° 88° (E) 04:06:17 437.375
ITAMSAT 1 31 Aug 04:09:11 04:14:22 75° 285° (WNW) 04:19:33 435.822/435.867
STARS 31 Aug 04:18:47 04:23:06 52° 260° (W) 04:27:27 437.465
AO-7 31 Aug 04:20:24 04:27:20 30° 94° (E) 04:34:26 29.400- 29.500
VERMONT LUNAR 31 Aug 04:20:26 04:22:56 25° 155° (SSE) 04:25:28 437.305
Cosmos 2499 31 Aug 04:29:35 04:37:23 46° 89° (E) 04:45:41 435.465 / 435.565
KKS-1 31 Aug 04:36:08 04:39:34 21° 267° (W) 04:42:55 437.445
MOZHAYETS 4 31 Aug 04:39:59 04:44:31 59° 75° (ENE) 04:49:05
JAS-2 31 Aug 04:47:47 04:54:52 70° 287° (WNW) 05:01:04 435.910
GONETS M04 31 Aug 04:55:00 05:03:02 39° 288° (WNW) 05:11:01
O/OREOS (USA 219) 31 Aug 05:18:45 05:23:10 44° 63° (ENE) 05:27:34 437.305
Gurwin Techsat 1B 31 Aug 05:27:18 05:29:59 14° 299° (WNW) 05:32:25 435.225
HORYU 2 31 Aug 05:37:51 05:42:18 67° 285° (WNW) 05:46:43 437.375
VERMONT LUNAR 31 Aug 05:56:10 05:59:09 80° 170° (S) 06:02:08 437.305
STRAND 1 31 Aug 06:02:13 06:04:03 12° 61° (ENE) 06:06:08 437.568
AO-7 31 Aug 06:12:30 06:20:38 60° 293° (WNW) 06:28:41 29.400- 29.500
MOZHAYETS 4 31 Aug 06:19:52 06:22:12 13° 271° (W) 06:24:17
PHONESAT 2.4 31 Aug 06:22:06 06:24:53 24° 153° (SSE) 06:27:42 2401.200-2431.200
Cosmos 2499 31 Aug 06:22:48 06:30:41 40° 289° (WNW) 06:38:49 435.465 / 435.565
CUTE-I 31 Aug 06:27:42 06:30:41 16° 89° (E) 06:33:55 437.470
CUBESAT XI-V 31 Aug 06:31:12 06:35:47 75° 76° (ENE) 06:40:23 437.345
JAS-2 31 Aug 06:35:32 06:38:35 13° 307° (NW) 06:41:09 435.910
O/OREOS (USA 219) 31 Aug 06:59:10 07:02:17 18° 259° (WSW) 07:05:13 437.305
PRISM 31 Aug 07:20:20 07:24:12 43° 73° (ENE) 07:28:07 437.425
Cubesat XI-IV 31 Aug 07:20:49 07:25:58 50° 99° (E) 07:31:09 437.490
BRITE-PL 31 Aug 07:30:24 07:32:45 13° 87° (E) 07:35:29 437.365/2234.400
VERMONT LUNAR 31 Aug 07:32:37 07:35:35 89° 219° (SW) 07:38:35 437.305
STRAND 1 31 Aug 07:37:31 07:42:37 85° 259° (W) 07:47:45 437.568
PHONESAT 2.4 31 Aug 07:59:06 08:02:30 75° 168° (SSE) 08:05:54 2401.200-2431.200
GOMX 1 31 Aug 08:03:02 08:06:11 16° 88° (E) 08:09:37 467.674
CUTE-I 31 Aug 08:06:01 08:11:17 64° 287° (WNW) 08:16:33 437.470
AO-7 31 Aug 08:08:08 08:11:54 13° 313° (NW) 08:15:13 29.400- 29.500
DOVE 4 31 Aug 08:21:08 08:23:39 14° 87° (E) 08:26:28 437.250
YUBILEINY 31 Aug 08:21:19 08:29:39 45° 73° (ENE) 08:38:00 435.215
HO-68 31 Aug 08:23:38 08:27:06 15° 87° (E) 08:31:04 435.675
PRISM 31 Aug 08:57:34 08:59:54 14° 269° (W) 09:02:04 437.425
Cubesat XI-IV 31 Aug 09:01:46 09:05:46 21° 295° (WNW) 09:09:36 437.490
BRITE-PL 31 Aug 09:06:23 09:11:54 83° 284° (WNW) 09:17:36 437.365/2234.400
AIST 1 31 Aug 09:06:57 09:11:11 69° 279° (W) 09:15:26
Cosmos 2491 31 Aug 09:08:00 09:15:59 44° 89° (E) 09:24:06 435.465 / 435.565
VERMONT LUNAR 31 Aug 09:09:10 09:11:53 32° 203° (SSW) 09:14:35 437.305
CINEMA 3 31 Aug 09:11:44 09:15:04 18° 90° (E) 09:18:31 145.822/145.860
